HST
1 20580U 90037B   24118.93683811  .00010641  00000-0  51402-3 0  9996
2 20580  28.4692 321.6271 0002066 202.9554 157.0946 15.17013852669399
ISS (ZARYA)
1 25544U 98067A   24119.46939495  .00095887  00000-0  16259-2 0  9998
2 25544  51.6380 201.9259 0004617 126.3534 320.1249 15.50709927450831
CXO
1 25867U 99040B   24120.27235969  .00001005  00000-0  00000+0 0  9997
2 25867  40.0637 158.6729 8932772 292.9099   1.1410  0.37811371 25539